Regional Weather Roundup
Issued by NWS

Home | Current Version | Previous Version | Graphics & Text | Print | Product List | Glossary On
Versions: 1 2 3 4 5 6 7 8 9 10 11 12 13 14 15 16 17 18 19 20 21 22 23 24 25 26 27 28 29 30 31 32 33 34 35 36 37 38 39 40 41 42 43 44 45 46 47 48 49 50
000
ASUS44 KMEG 010710
RWRTN
TENNESSEE HOURLY STATE WEATHER ROUNDUP
NATIONAL WEATHER SERVICE MEMPHIS TN
100 AM CST SUN FEB 01 2015

TNZ002-004-019-021-049-052-054-088>092-010800-
WEST TENNESSEE

CITY           SKY/WX    TMP DP  RH WIND       PRES   REMARKS
MEMPHIS INTL   CLOUDY    51  24  34 S13G20    30.03F
NWS MEMPHIS      N/A     50 N/A N/A MISG        N/A
JACKSON        CLOUDY    50  19  29 S7        30.06F
DYERSBURG      CLOUDY    45  18  33 SE12      30.05F
UNION CITY     PTCLDY    41  23  48 SE6       30.04F
PARIS          MOCLDY    45  18  33 S7        30.07S
LEXINGTON      PTCLDY    46  18  31 S6        30.07F
SAVANNAH       MOCLDY    48  19  32 S10       30.09F
$$

TNZ008-025-027-028-033-062-065-066-010800-
NORTH MIDDLE TENNESSEE

CITY           SKY/WX    TMP DP  RH WIND       PRES   REMARKS
NASHVILLE      CLOUDY    43  19  38 SE6       30.13F
CLARKSVILLE    CLOUDY    44  18  35 SE12      30.08F
SMYRNA         CLOUDY    40  21  46 SE5       30.15F
COOKEVILLE     CLEAR     43  10  26 S7        30.15F
CROSSVILLE     CLOUDY    41  11  29 S7        30.15F
$$

TNZ061-075-076-078-094-096-097-010800-
SOUTH MIDDLE TENNESSEE

CITY           SKY/WX    TMP DP  RH WIND       PRES   REMARKS
FAYETTEVILLE   CLEAR     43  18  36 MISG      30.16F
TULLAHOMA      PTCLDY    43  12  28 S3        30.16F
WINCHESTER     PTCLDY    45  18  33 SE9       30.17F
MCMINNVILLE    PTCLDY    39  25  56 CALM      30.15F
COLUMBIA       CLEAR     45  19  36 SE5       30.09F
SHELBYVILLE    PTCLDY    46  18  31 SE6       30.16F
$$

TNZ017-018-042-046-047-010800-
NORTHEAST TENNESSEE

CITY           SKY/WX    TMP DP  RH WIND       PRES   REMARKS
TRI CITIES     CLOUDY    34  20  56 CALM      30.21F
ELIZABETHTON   CLOUDY    30  16  55 E7        30.20F WCI  23
$$

TNZ012-013-036-069-073-074-010800-
CENTRAL EAST TENNESSEE

CITY           SKY/WX    TMP DP  RH WIND       PRES   REMARKS
KNOXVILLE      CLOUDY    37  25  61 CALM      30.22F
OAK RIDGE      CLOUDY    39  24  55 CALM      30.23F
GATLINBURG     PTSUNNY   36  23  60 CALM      30.22F
MORRISTOWN     SUNNY     37  19  48 CALM      30.22S
$$

TNZ083-085-099-010800-
SOUTHEAST TENNESSEE

CITY           SKY/WX    TMP DP  RH WIND       PRES   REMARKS
CHATTANOOGA    CLOUDY    39  28  64 CALM      30.23F
$$

SKY/WX REPORTED AS FAIR MEANS FEW OR NO CLOUDS BELOW
12 THOUSAND FEET.




USA.gov is the U.S. government's official web portal to all federal, state and local government web resources and services.